Time,TemperatureF,DewpointF,PressureIn,WindDirection,WindDirectionDegrees,WindSpeedMPH,WindSpeedGustMPH,Humidity,HourlyPrecipIn,Conditions,Clouds,dailyrainin,SoftwareType,DateUTC
2013-03-11 00:03:00,0.0,-72.0,-100.00,North,0,0.0,-999.0,0,-99.99,,,-99.99,,2013-03-11 04:03:00,
2013-03-11 00:12:00,0.0,-72.0,-100.00,North,0,0.0,-999.0,0,-99.99,,,-99.99,,2013-03-11 04:12:00,
2013-03-11 00:22:00,0.0,-72.0,-100.00,North,0,0.0,-999.0,0,-99.99,,,-99.99,,2013-03-11 04:22:00,
2013-03-11 00:33:00,0.0,-72.0,-100.00,North,0,0.0,-999.0,0,-99.99,,,-99.99,,2013-03-11 04:33:00,
2013-03-11 00:43:00,0.0,-72.0,-100.00,North,0,0.0,-999.0,0,-99.99,,,-99.99,,2013-03-11 04:43:00,
2013-03-11 00:53:00,0.0,-72.0,-100.00,North,0,0.0,-999.0,0,-99.99,,,-99.99,,2013-03-11 04:53:00,
2013-03-11 01:04:00,0.0,-72.0,-100.00,North,0,0.0,-999.0,0,-99.99,,,-99.99,,2013-03-11 05:04:00,
2013-03-11 01:12:00,0.0,-72.0,-100.00,North,0,0.0,-999.0,0,-99.99,,,-99.99,,2013-03-11 05:12:00,
2013-03-11 01:22:00,0.0,-72.0,-100.00,North,0,0.0,-999.0,0,-99.99,,,-99.99,,2013-03-11 05:22:00,
2013-03-11 01:32:00,0.0,-72.0,-100.00,North,0,0.0,-999.0,0,-99.99,,,-99.99,,2013-03-11 05:32:00,
2013-03-11 01:43:00,0.0,-72.0,-100.00,North,0,0.0,-999.0,0,-99.99,,,-99.99,,2013-03-11 05:43:00,
2013-03-11 01:52:00,0.0,-72.0,-100.00,North,0,0.0,-999.0,0,-99.99,,,-99.99,,2013-03-11 05:52:00,
2013-03-11 02:02:00,0.0,-72.0,-100.00,North,0,0.0,-999.0,0,-99.99,,,-99.99,,2013-03-11 06:02:00,
2013-03-11 02:12:00,0.0,-72.0,-100.00,North,0,0.0,-999.0,0,-99.99,,,-99.99,,2013-03-11 06:12:00,
2013-03-11 02:22:00,0.0,-72.0,-100.00,North,0,0.0,-999.0,0,-99.99,,,-99.99,,2013-03-11 06:22:00,
2013-03-11 02:32:00,0.0,-72.0,-100.00,North,0,0.0,-999.0,0,-99.99,,,-99.99,,2013-03-11 06:32:00,
2013-03-11 02:42:00,0.0,-72.0,-100.00,North,0,0.0,-999.0,0,-99.99,,,-99.99,,2013-03-11 06:42:00,
2013-03-11 02:53:00,0.0,-72.0,-100.00,North,0,0.0,-999.0,0,-99.99,,,-99.99,,2013-03-11 06:53:00,
2013-03-11 03:03:00,0.0,-72.0,-100.00,North,0,0.0,-999.0,0,-99.99,,,-99.99,,2013-03-11 07:03:00,
2013-03-11 03:12:00,0.0,-72.0,-100.00,North,0,0.0,-999.0,0,-99.99,,,-99.99,,2013-03-11 07:12:00,
2013-03-11 03:22:00,0.0,-72.0,-100.00,North,0,0.0,-999.0,0,-99.99,,,-99.99,,2013-03-11 07:22:00,
2013-03-11 03:32:00,0.0,-72.0,-100.00,North,0,0.0,-999.0,0,-99.99,,,-99.99,,2013-03-11 07:32:00,
2013-03-11 03:42:00,0.0,-72.0,-100.00,North,0,0.0,-999.0,0,-99.99,,,-99.99,,2013-03-11 07:42:00,
2013-03-11 03:52:00,0.0,-72.0,-100.00,North,0,0.0,-999.0,0,-99.99,,,-99.99,,2013-03-11 07:52:00,
2013-03-11 04:02:00,0.0,-72.0,-100.00,North,0,0.0,-999.0,0,-99.99,,,-99.99,,2013-03-11 08:02:00,
2013-03-11 04:12:00,0.0,-72.0,-100.00,North,0,0.0,-999.0,0,-99.99,,,-99.99,,2013-03-11 08:12:00,
2013-03-11 04:22:00,0.0,-72.0,-100.00,North,0,0.0,-999.0,0,-99.99,,,-99.99,,2013-03-11 08:22:00,
2013-03-11 04:32:00,0.0,-72.0,-100.00,North,0,0.0,-999.0,0,-99.99,,,-99.99,,2013-03-11 08:32:00,
2013-03-11 04:42:00,0.0,-72.0,-100.00,North,0,0.0,-999.0,0,-99.99,,,-99.99,,2013-03-11 08:42:00,
2013-03-11 04:52:00,0.0,-72.0,-100.00,North,0,0.0,-999.0,0,-99.99,,,-99.99,,2013-03-11 08:52:00,
2013-03-11 05:02:00,0.0,-72.0,-100.00,North,0,0.0,-999.0,0,-99.99,,,-99.99,,2013-03-11 09:02:00,
2013-03-11 05:12:00,0.0,-72.0,-100.00,North,0,0.0,-999.0,0,-99.99,,,-99.99,,2013-03-11 09:12:00,
2013-03-11 05:23:00,0.0,-72.0,-100.00,North,0,0.0,-999.0,0,-99.99,,,-99.99,,2013-03-11 09:23:00,
2013-03-11 05:32:00,0.0,-72.0,-100.00,North,0,0.0,-999.0,0,-99.99,,,-99.99,,2013-03-11 09:32:00,
2013-03-11 05:42:00,0.0,-72.0,-100.00,North,0,0.0,-999.0,0,-99.99,,,-99.99,,2013-03-11 09:42:00,
2013-03-11 05:53:00,0.0,-72.0,-100.00,North,0,0.0,-999.0,0,-99.99,,,-99.99,,2013-03-11 09:53:00,
2013-03-11 06:02:00,0.0,-72.0,-100.00,North,0,0.0,-999.0,0,-99.99,,,-99.99,,2013-03-11 10:02:00,
2013-03-11 06:12:00,0.0,-72.0,-100.00,North,0,0.0,-999.0,0,-99.99,,,-99.99,,2013-03-11 10:12:00,
2013-03-11 11:13:00,0.0,-72.0,-100.00,North,0,0.0,-999.0,0,-99.99,,,-99.99,,2013-03-11 15:13:00,
2013-03-11 11:23:00,61.0,61.0,-100.00,SSW,204,5.0,-999.0,98,-99.99,,,-99.99,,2013-03-11 15:23:00,
2013-03-11 11:32:00,61.0,61.0,-100.00,SSW,204,5.0,-999.0,98,-99.99,,,-99.99,,2013-03-11 15:32:00,
2013-03-11 11:43:00,61.0,61.0,-100.00,SSW,203,5.0,-999.0,98,-99.99,,,-99.99,,2013-03-11 15:43:00,
2013-03-11 12:13:00,62.0,61.0,-100.00,SSW,194,5.0,-999.0,95,-99.99,,,-99.99,,2013-03-11 16:13:00,
2013-03-11 12:22:00,62.0,60.0,-100.00,SSW,197,4.0,-999.0,93,-99.99,,,-99.99,,2013-03-11 16:22:00,
2013-03-11 12:32:00,62.0,60.0,-100.00,SSW,197,4.0,-999.0,93,-99.99,,,-99.99,,2013-03-11 16:32:00,
2013-03-11 12:43:00,62.0,60.0,-100.00,South,191,4.0,-999.0,94,-99.99,,,-99.99,,2013-03-11 16:43:00,
2013-03-11 12:52:00,62.0,60.0,-100.00,South,191,4.0,-999.0,94,-99.99,,,-99.99,,2013-03-11 16:52:00,
2013-03-11 13:02:00,62.0,60.0,-100.00,South,191,4.0,-999.0,94,-99.99,,,-99.99,,2013-03-11 17:02:00,
2013-03-11 13:17:00,62.0,60.0,-100.00,SSW,199,5.0,-999.0,92,-99.99,,,-99.99,,2013-03-11 17:17:00,
2013-03-11 13:28:00,62.0,60.0,-100.00,South,188,3.0,-999.0,91,-99.99,,,-99.99,,2013-03-11 17:28:00,
2013-03-11 13:37:00,62.0,60.0,-100.00,South,188,3.0,-999.0,91,-99.99,,,-99.99,,2013-03-11 17:37:00,
2013-03-11 13:53:00,57.0,57.0,-100.00,SW,233,3.0,-999.0,100,-99.99,,,-99.99,,2013-03-11 17:53:00,
2013-03-11 14:02:00,57.0,57.0,-100.00,SW,233,3.0,-999.0,100,-99.99,,,-99.99,,2013-03-11 18:02:00,
2013-03-11 14:12:00,56.0,56.0,-100.00,West,268,1.0,-999.0,100,-99.99,,,-99.99,,2013-03-11 18:12:00,
2013-03-11 14:23:00,56.0,56.0,-100.00,ENE,66,1.0,-999.0,100,-99.99,,,-99.99,,2013-03-11 18:23:00,
2013-03-11 14:33:00,56.0,56.0,-100.00,ENE,66,1.0,-999.0,100,-99.99,,,-99.99,,2013-03-11 18:33:00,
2013-03-11 14:42:00,56.0,56.0,-100.00,WSW,257,1.0,-999.0,100,-99.99,,,-99.99,,2013-03-11 18:42:00,
2013-03-11 14:53:00,56.0,56.0,-100.00,WSW,255,1.0,-999.0,100,-99.99,,,-99.99,,2013-03-11 18:53:00,
2013-03-11 15:02:00,56.0,56.0,-100.00,WSW,255,1.0,-999.0,100,-99.99,,,-99.99,,2013-03-11 19:02:00,
2013-03-11 15:13:00,55.0,55.0,-100.00,WSW,254,3.0,-999.0,100,-99.99,,,-99.99,,2013-03-11 19:13:00,
2013-03-11 15:23:00,55.0,55.0,-100.00,SW,232,4.0,-999.0,100,-99.99,,,-99.99,,2013-03-11 19:23:00,
2013-03-11 15:33:00,55.0,55.0,-100.00,SW,232,4.0,-999.0,100,-99.99,,,-99.99,,2013-03-11 19:33:00,
2013-03-11 15:43:00,54.0,54.0,-100.00,SW,220,2.0,-999.0,100,-99.99,,,-99.99,,2013-03-11 19:43:00,
2013-03-11 15:53:00,54.0,54.0,-100.00,SW,216,2.0,-999.0,100,-99.99,,,-99.99,,2013-03-11 19:53:00,
2013-03-11 16:02:00,54.0,54.0,-100.00,SW,216,2.0,-999.0,100,-99.99,,,-99.99,,2013-03-11 20:02:00,
2013-03-11 16:12:00,54.0,54.0,-100.00,SSW,204,1.0,-999.0,100,-99.99,,,-99.99,,2013-03-11 20:12:00,
2013-03-11 16:22:00,54.0,54.0,-100.00,SSW,195,1.0,-999.0,100,-99.99,,,-99.99,,2013-03-11 20:22:00,
2013-03-11 16:32:00,54.0,54.0,-100.00,SSW,195,1.0,-999.0,100,-99.99,,,-99.99,,2013-03-11 20:32:00,
2013-03-11 16:43:00,54.0,54.0,-100.00,SSW,199,2.0,-999.0,100,-99.99,,,-99.99,,2013-03-11 20:43:00,
2013-03-11 16:53:00,54.0,54.0,-100.00,SSW,203,2.0,-999.0,100,-99.99,,,-99.99,,2013-03-11 20:53:00,
2013-03-11 17:03:00,54.0,54.0,-100.00,SSW,203,2.0,-999.0,100,-99.99,,,-99.99,,2013-03-11 21:03:00,
2013-03-11 17:13:00,54.0,54.0,-100.00,SW,216,3.0,-999.0,100,-99.99,,,-99.99,,2013-03-11 21:13:00,
2013-03-11 17:23:00,54.0,54.0,-100.00,SSW,205,2.0,-999.0,100,-99.99,,,-99.99,,2013-03-11 21:23:00,
2013-03-11 17:33:00,54.0,54.0,-100.00,SSW,205,2.0,-999.0,100,-99.99,,,-99.99,,2013-03-11 21:33:00,
2013-03-11 17:44:00,54.0,54.0,-100.00,South,189,3.0,-999.0,100,-99.99,,,-99.99,,2013-03-11 21:44:00,
2013-03-11 17:53:00,54.0,54.0,-100.00,South,189,3.0,-999.0,100,-99.99,,,-99.99,,2013-03-11 21:53:00,
2013-03-11 18:03:00,54.0,54.0,-100.00,South,189,3.0,-999.0,100,-99.99,,,-99.99,,2013-03-11 22:03:00,
2013-03-11 18:13:00,56.0,56.0,-100.00,WSW,246,5.0,-999.0,100,-99.99,,,-99.99,,2013-03-11 22:13:00,
2013-03-11 18:23:00,55.0,55.0,-100.00,WSW,241,2.0,-999.0,100,-99.99,,,-99.99,,2013-03-11 22:23:00,
2013-03-11 18:32:00,55.0,55.0,-100.00,WSW,241,2.0,-999.0,100,-99.99,,,-99.99,,2013-03-11 22:32:00,
2013-03-11 18:43:00,55.0,55.0,-100.00,WSW,251,2.0,-999.0,100,-99.99,,,-99.99,,2013-03-11 22:43:00,
2013-03-11 18:53:00,55.0,55.0,-100.00,WSW,253,1.0,-999.0,100,-99.99,,,-99.99,,2013-03-11 22:53:00,
2013-03-11 19:03:00,55.0,55.0,-100.00,WSW,253,1.0,-999.0,100,-99.99,,,-99.99,,2013-03-11 23:03:00,
2013-03-11 19:12:00,55.0,55.0,-100.00,South,185,1.0,-999.0,100,-99.99,,,-99.99,,2013-03-11 23:12:00,
2013-03-11 19:22:00,54.0,54.0,-100.00,West,278,1.0,-999.0,100,-99.99,,,-99.99,,2013-03-11 23:22:00,
2013-03-11 19:32:00,54.0,54.0,-100.00,West,278,1.0,-999.0,100,-99.99,,,-99.99,,2013-03-11 23:32:00,
2013-03-11 19:43:00,54.0,54.0,-100.00,ESE,122,0.0,-999.0,100,-99.99,,,-99.99,,2013-03-11 23:43:00,
2013-03-11 19:54:00,53.0,53.0,-100.00,WNW,291,0.0,-999.0,100,-99.99,,,-99.99,,2013-03-11 23:54:00,
2013-03-11 20:02:00,53.0,53.0,-100.00,WNW,291,0.0,-999.0,100,-99.99,,,-99.99,,2013-03-12 00:02:00,
2013-03-11 20:13:00,53.0,53.0,-100.00,WSW,257,1.0,-999.0,100,-99.99,,,-99.99,,2013-03-12 00:13:00,
2013-03-11 20:23:00,52.0,52.0,-100.00,West,267,2.0,-999.0,100,-99.99,,,-99.99,,2013-03-12 00:23:00,
2013-03-11 20:33:00,52.0,52.0,-100.00,West,267,2.0,-999.0,100,-99.99,,,-99.99,,2013-03-12 00:33:00,
2013-03-11 20:43:00,52.0,52.0,-100.00,WSW,256,2.0,-999.0,100,-99.99,,,-99.99,,2013-03-12 00:43:00,
2013-03-11 20:54:00,51.0,51.0,-100.00,WNW,286,1.0,-999.0,100,-99.99,,,-99.99,,2013-03-12 00:54:00,
2013-03-11 21:02:00,51.0,51.0,-100.00,WNW,286,1.0,-999.0,100,-99.99,,,-99.99,,2013-03-12 01:02:00,
2013-03-11 21:12:00,50.0,50.0,-100.00,WNW,291,1.0,-999.0,100,-99.99,,,-99.99,,2013-03-12 01:12:00,
2013-03-11 21:22:00,50.0,50.0,-100.00,West,261,1.0,-999.0,100,-99.99,,,-99.99,,2013-03-12 01:22:00,
2013-03-11 21:33:00,50.0,50.0,-100.00,West,272,1.0,-999.0,100,-99.99,,,-99.99,,2013-03-12 01:33:00,
2013-03-11 21:42:00,50.0,50.0,-100.00,West,272,1.0,-999.0,100,-99.99,,,-99.99,,2013-03-12 01:42:00,
2013-03-11 21:53:00,49.0,49.0,-100.00,West,266,2.0,-999.0,100,-99.99,,,-99.99,,2013-03-12 01:53:00,
2013-03-11 22:02:00,49.0,49.0,-100.00,West,266,2.0,-999.0,100,-99.99,,,-99.99,,2013-03-12 02:02:00,
2013-03-11 22:12:00,48.0,48.0,-100.00,West,274,2.0,-999.0,100,-99.99,,,-99.99,,2013-03-12 02:12:00,
2013-03-11 22:22:00,47.0,47.0,-100.00,West,277,2.0,-999.0,100,-99.99,,,-99.99,,2013-03-12 02:22:00,
2013-03-11 22:32:00,47.0,47.0,-100.00,West,277,2.0,-999.0,100,-99.99,,,-99.99,,2013-03-12 02:32:00,
2013-03-11 22:42:00,47.0,47.0,-100.00,West,274,2.0,-999.0,100,-99.99,,,-99.99,,2013-03-12 02:42:00,
2013-03-11 22:52:00,47.0,47.0,-100.00,West,269,1.0,-999.0,100,-99.99,,,-99.99,,2013-03-12 02:52:00,
2013-03-11 23:02:00,47.0,47.0,-100.00,West,269,1.0,-999.0,100,-99.99,,,-99.99,,2013-03-12 03:02:00,
2013-03-11 23:12:00,46.0,46.0,-100.00,West,278,1.0,-999.0,100,-99.99,,,-99.99,,2013-03-12 03:12:00,
2013-03-11 23:22:00,46.0,46.0,-100.00,West,271,1.0,-999.0,100,-99.99,,,-99.99,,2013-03-12 03:22:00,
2013-03-11 23:32:00,46.0,46.0,-100.00,West,271,1.0,-999.0,100,-99.99,,,-99.99,,2013-03-12 03:32:00,
2013-03-11 23:42:00,46.0,46.0,-100.00,West,277,1.0,-999.0,100,-99.99,,,-99.99,,2013-03-12 03:42:00,
2013-03-11 23:53:00,45.0,45.0,-100.00,West,268,2.0,-999.0,100,-99.99,,,-99.99,,2013-03-12 03:53:00,